User: anonymous
Location: Vancouver
(49.2500°N, 123.1330°W)
Time: 07:52:47
(UTC-07:00)
Language:

Cosmos 2333 Rocket - Orbit

View from above orbital plane
View from above orbital plane
View from above satellite
View from above satellite

Ground track
Ground track

The orbit data is extracted from the following two-line orbital elements,

1 24298U 96051B   14111.08704580 -.00000003  00000-0  24234-4 0  4332
2 24298 070.8710 332.1401 0013449 102.5193 059.8914 14.12487428909001
Epoch (UTC): 21 April 2014 02:05:20
Eccentricity: 0.0013449
inclination: 70.8710°
perigee height: 841 km
apogee height: 860 km
right ascension of ascending node: 332.1401°
argument of perigee: 102.5193°
revolutions per day: 14.12487428
mean anomaly at epoch: 59.8914°
orbit number at epoch: 90900

The dashed part of the orbit path shows where the satellite is in the earth's shadow,  

DLR